Time,TemperatureF,DewpointF,PressureIn,WindDirection,WindDirectionDegrees,WindSpeedMPH,WindSpeedGustMPH,Humidity,HourlyPrecipIn,Conditions,Clouds,dailyrainin,SoftwareType,DateUTC
2013-09-09 00:01:00,76.2,73.4,29.96,WNW,283,0.0,0.0,91,0.00,,---,0.00,VWS V14.01,2013-09-09 04:01:00,
2013-09-09 00:02:00,76.2,73.4,29.96,WNW,283,0.0,0.0,91,0.00,,---,0.00,VWS V14.01,2013-09-09 04:02:00,
2013-09-09 00:05:00,76.1,73.3,29.96,WNW,283,0.0,0.0,91,0.00,,---,0.00,VWS V14.01,2013-09-09 04:05:00,
2013-09-09 00:10:00,76.0,73.2,29.96,WNW,283,0.0,1.0,91,0.00,,---,0.00,VWS V14.01,2013-09-09 04:10:00,
2013-09-09 00:15:00,76.0,73.2,29.96,WNW,284,0.0,1.0,91,0.00,,---,0.00,VWS V14.01,2013-09-09 04:15:00,
2013-09-09 00:20:00,75.8,73.0,29.96,WNW,284,0.0,1.0,91,0.00,,---,0.00,VWS V14.01,2013-09-09 04:20:00,
2013-09-09 00:25:00,75.6,72.8,29.96,WNW,284,0.0,1.0,91,0.00,,---,0.00,VWS V14.01,2013-09-09 04:25:00,
2013-09-09 00:30:00,75.4,72.9,29.96,WNW,283,0.0,0.0,92,0.00,,---,0.00,VWS V14.01,2013-09-09 04:30:00,
2013-09-09 00:35:00,75.4,72.9,29.95,WNW,284,0.0,0.0,92,0.00,,---,0.00,VWS V14.01,2013-09-09 04:35:00,
2013-09-09 00:40:00,75.3,72.8,29.95,WNW,284,0.0,0.0,92,0.00,,---,0.00,VWS V14.01,2013-09-09 04:40:00,
2013-09-09 00:46:00,75.1,72.6,29.95,WNW,283,0.0,0.0,92,0.00,,---,0.00,VWS V14.01,2013-09-09 04:46:00,
2013-09-09 00:51:00,75.0,72.5,29.95,WNW,284,0.0,0.0,92,0.00,,---,0.00,VWS V14.01,2013-09-09 04:51:00,
2013-09-09 00:56:00,74.9,72.7,29.95,WNW,284,0.0,0.0,93,0.00,,---,0.00,VWS V14.01,2013-09-09 04:56:00,
2013-09-09 01:01:00,74.8,72.6,29.95,WNW,283,0.0,0.0,93,0.00,,---,0.00,VWS V14.01,2013-09-09 05:01:00,
2013-09-09 01:06:00,74.8,72.6,29.95,WNW,284,0.0,1.0,93,0.00,,---,0.00,VWS V14.01,2013-09-09 05:06:00,
2013-09-09 01:11:00,74.7,72.6,29.95,WNW,284,0.0,1.0,93,0.00,,---,0.00,VWS V14.01,2013-09-09 05:11:00,
2013-09-09 01:16:00,74.6,72.4,29.95,WNW,283,0.0,1.0,93,0.00,,---,0.00,VWS V14.01,2013-09-09 05:16:00,
2013-09-09 01:21:00,74.4,72.6,29.95,SE,131,0.0,1.0,94,0.00,,---,0.00,VWS V14.01,2013-09-09 05:21:00,
2013-09-09 01:26:00,74.4,72.6,29.95,SW,215,0.0,2.0,94,0.00,,---,0.00,VWS V14.01,2013-09-09 05:26:00,
2013-09-09 01:31:00,74.4,72.6,29.95,SW,215,0.0,1.0,94,0.00,,---,0.00,VWS V14.01,2013-09-09 05:31:00,
2013-09-09 01:36:00,74.4,72.6,29.94,SW,215,0.0,1.0,94,0.00,,---,0.00,VWS V14.01,2013-09-09 05:36:00,
2013-09-09 01:42:00,74.4,72.6,29.94,SW,217,0.0,1.0,94,0.00,,---,0.00,VWS V14.01,2013-09-09 05:42:00,
2013-09-09 01:47:00,74.4,72.6,29.94,SW,217,0.0,1.0,94,0.00,,---,0.00,VWS V14.01,2013-09-09 05:47:00,
2013-09-09 01:52:00,74.4,72.6,29.94,SW,217,0.0,1.0,94,0.00,,---,0.00,VWS V14.01,2013-09-09 05:52:00,
2013-09-09 01:57:00,74.4,72.6,29.94,SW,217,0.0,1.0,94,0.00,,---,0.00,VWS V14.01,2013-09-09 05:57:00,
2013-09-09 02:02:00,74.3,72.5,29.94,SW,217,0.0,0.0,94,0.00,,---,0.00,VWS V14.01,2013-09-09 06:02:00,
2013-09-09 02:07:00,74.3,72.5,29.94,SW,217,0.0,0.0,94,0.00,,---,0.00,VWS V14.01,2013-09-09 06:07:00,
2013-09-09 02:12:00,74.2,72.4,29.94,SE,143,0.0,1.0,94,0.00,,---,0.00,VWS V14.01,2013-09-09 06:12:00,
2013-09-09 02:17:00,74.3,72.5,29.94,SE,145,0.0,1.0,94,0.00,,---,0.00,VWS V14.01,2013-09-09 06:17:00,
2013-09-09 02:22:00,74.3,72.5,29.94,SE,145,0.0,1.0,94,0.00,,---,0.00,VWS V14.01,2013-09-09 06:22:00,
2013-09-09 02:27:00,74.2,72.4,29.94,SE,145,0.0,1.0,94,0.00,,---,0.00,VWS V14.01,2013-09-09 06:27:00,
2013-09-09 02:32:00,74.2,72.7,29.94,SE,145,0.0,0.0,95,0.00,,---,0.00,VWS V14.01,2013-09-09 06:32:00,
2013-09-09 02:37:00,74.2,72.7,29.94,SE,145,0.0,0.0,95,0.00,,---,0.00,VWS V14.01,2013-09-09 06:37:00,
2013-09-09 02:43:00,74.1,72.6,29.94,SE,145,0.0,0.0,95,0.00,,---,0.00,VWS V14.01,2013-09-09 06:43:00,
2013-09-09 02:48:00,74.2,72.7,29.94,SE,139,0.0,1.0,95,0.00,,---,0.00,VWS V14.01,2013-09-09 06:48:00,
2013-09-09 02:53:00,74.1,72.6,29.93,SE,140,0.0,1.0,95,0.00,,---,0.00,VWS V14.01,2013-09-09 06:53:00,
2013-09-09 02:58:00,74.2,72.7,29.93,SE,142,0.0,1.0,95,0.00,,---,0.00,VWS V14.01,2013-09-09 06:58:00,
2013-09-09 03:03:00,74.1,72.6,29.93,SE,142,0.0,0.0,95,0.00,,---,0.00,VWS V14.01,2013-09-09 07:03:00,
2013-09-09 03:08:00,74.1,72.6,29.93,SE,142,0.0,0.0,95,0.00,,---,0.00,VWS V14.01,2013-09-09 07:08:00,
2013-09-09 03:13:00,74.1,72.6,29.93,SE,142,0.0,0.0,95,0.00,,---,0.00,VWS V14.01,2013-09-09 07:13:00,
2013-09-09 03:18:00,74.2,72.7,29.92,SE,142,0.0,1.0,95,0.00,,---,0.00,VWS V14.01,2013-09-09 07:18:00,
2013-09-09 03:23:00,74.1,72.6,29.92,SE,142,0.0,1.0,95,0.00,,---,0.00,VWS V14.01,2013-09-09 07:23:00,
2013-09-09 03:28:00,74.1,72.6,29.92,SE,143,0.0,1.0,95,0.00,,---,0.00,VWS V14.01,2013-09-09 07:28:00,
2013-09-09 03:33:00,74.2,72.7,29.92,SE,142,0.0,0.0,95,0.00,,---,0.00,VWS V14.01,2013-09-09 07:33:00,
2013-09-09 03:38:00,74.1,72.6,29.92,SE,142,0.0,0.0,95,0.00,,---,0.00,VWS V14.01,2013-09-09 07:38:00,
2013-09-09 03:44:00,74.1,72.6,29.92,SE,142,0.0,0.0,95,0.00,,---,0.00,VWS V14.01,2013-09-09 07:44:00,
2013-09-09 03:49:00,74.0,72.5,29.93,East,80,1.0,3.0,95,0.00,,---,0.00,VWS V14.01,2013-09-09 07:49:00,
2013-09-09 03:54:00,74.1,72.6,29.92,ENE,64,0.0,3.0,95,0.00,,---,0.00,VWS V14.01,2013-09-09 07:54:00,
2013-09-09 03:59:00,74.3,72.8,29.93,ENE,63,0.0,3.0,95,0.00,,---,0.00,VWS V14.01,2013-09-09 07:59:00,
2013-09-09 04:04:00,74.3,72.8,29.93,ENE,64,0.0,0.0,95,0.00,,---,0.00,VWS V14.01,2013-09-09 08:04:00,
2013-09-09 04:09:00,74.3,72.8,29.93,ENE,64,0.0,0.0,95,0.00,,---,0.00,VWS V14.01,2013-09-09 08:09:00,
2013-09-09 04:14:00,74.2,72.7,29.93,ENE,64,0.0,0.0,95,0.00,,---,0.00,VWS V14.01,2013-09-09 08:14:00,
2013-09-09 04:19:00,74.3,72.8,29.92,NE,56,0.0,1.0,95,0.00,,---,0.00,VWS V14.01,2013-09-09 08:19:00,
2013-09-09 04:24:00,74.2,72.7,29.92,ENE,57,0.0,1.0,95,0.00,,---,0.00,VWS V14.01,2013-09-09 08:24:00,
2013-09-09 04:29:00,74.2,72.7,29.92,NW,325,0.0,1.0,95,0.00,,---,0.00,VWS V14.01,2013-09-09 08:29:00,
2013-09-09 04:34:00,74.1,72.6,29.92,NW,325,0.0,0.0,95,0.00,,---,0.00,VWS V14.01,2013-09-09 08:34:00,
2013-09-09 04:39:00,74.0,72.5,29.92,NW,325,0.0,0.0,95,0.00,,---,0.00,VWS V14.01,2013-09-09 08:39:00,
2013-09-09 04:44:00,73.9,72.4,29.92,NW,325,0.0,0.0,95,0.00,,---,0.00,VWS V14.01,2013-09-09 08:44:00,
2013-09-09 04:49:00,73.8,72.3,29.92,NW,325,0.0,0.0,95,0.00,,---,0.00,VWS V14.01,2013-09-09 08:49:00,
2013-09-09 04:55:00,73.7,72.2,29.93,NW,325,0.0,0.0,95,0.00,,---,0.00,VWS V14.01,2013-09-09 08:55:00,
2013-09-09 05:00:00,73.6,72.1,29.93,NW,325,0.0,0.0,95,0.00,,---,0.00,VWS V14.01,2013-09-09 09:00:00,
2013-09-09 05:05:00,73.4,71.9,29.93,NW,325,0.0,0.0,95,0.00,,---,0.00,VWS V14.01,2013-09-09 09:05:00,
2013-09-09 05:10:00,73.3,71.8,29.93,NW,325,0.0,0.0,95,0.00,,---,0.00,VWS V14.01,2013-09-09 09:10:00,
2013-09-09 05:15:00,73.5,72.3,29.93,NW,325,0.0,0.0,96,0.00,,---,0.00,VWS V14.01,2013-09-09 09:15:00,
2013-09-09 05:20:00,73.4,71.9,29.93,NW,324,0.0,0.0,95,0.00,,---,0.00,VWS V14.01,2013-09-09 09:20:00,
2013-09-09 05:25:00,73.4,72.2,29.93,NW,325,0.0,0.0,96,0.00,,---,0.00,VWS V14.01,2013-09-09 09:25:00,
2013-09-09 05:30:00,73.3,71.8,29.93,NW,325,0.0,0.0,95,0.00,,---,0.00,VWS V14.01,2013-09-09 09:30:00,
2013-09-09 05:35:00,73.5,72.3,29.93,NW,325,0.0,0.0,96,0.00,,---,0.00,VWS V14.01,2013-09-09 09:35:00,
2013-09-09 05:40:00,73.5,72.3,29.93,NW,325,0.0,0.0,96,0.00,,---,0.00,VWS V14.01,2013-09-09 09:40:00,
2013-09-09 05:45:00,73.4,72.2,29.94,NW,325,0.0,0.0,96,0.00,,---,0.00,VWS V14.01,2013-09-09 09:45:00,
2013-09-09 05:50:00,73.4,72.2,29.93,NW,325,0.0,0.0,96,0.00,,---,0.00,VWS V14.01,2013-09-09 09:50:00,
2013-09-09 05:55:00,73.4,72.2,29.94,NW,323,0.0,0.0,96,0.00,,---,0.00,VWS V14.01,2013-09-09 09:55:00,
2013-09-09 06:00:00,73.4,72.2,29.94,NW,323,0.0,0.0,96,0.00,,---,0.00,VWS V14.01,2013-09-09 10:00:00,
2013-09-09 06:05:00,73.3,72.1,29.94,NW,323,0.0,0.0,96,0.00,,---,0.00,VWS V14.01,2013-09-09 10:05:00,
2013-09-09 06:11:00,73.2,72.0,29.94,NW,323,0.0,0.0,96,0.00,,---,0.00,VWS V14.01,2013-09-09 10:11:00,
2013-09-09 06:16:00,73.2,72.0,29.95,NW,323,0.0,0.0,96,0.00,,---,0.00,VWS V14.01,2013-09-09 10:16:00,
2013-09-09 06:21:00,73.1,71.9,29.95,NW,323,0.0,0.0,96,0.00,,---,0.00,VWS V14.01,2013-09-09 10:21:00,
2013-09-09 06:26:00,73.1,71.9,29.95,NW,323,0.0,0.0,96,0.00,,---,0.00,VWS V14.01,2013-09-09 10:26:00,
2013-09-09 06:31:00,73.1,71.9,29.95,NW,323,0.0,0.0,96,0.00,,---,0.00,VWS V14.01,2013-09-09 10:31:00,
2013-09-09 06:36:00,73.1,71.9,29.95,NW,323,0.0,0.0,96,0.00,,---,0.00,VWS V14.01,2013-09-09 10:36:00,
2013-09-09 06:41:00,73.0,71.8,29.95,NW,325,0.0,0.0,96,0.00,,---,0.00,VWS V14.01,2013-09-09 10:41:00,
2013-09-09 06:46:00,73.0,71.8,29.95,NW,325,0.0,0.0,96,0.00,,---,0.00,VWS V14.01,2013-09-09 10:46:00,
2013-09-09 06:51:00,72.9,71.7,29.95,NW,325,0.0,0.0,96,0.00,,---,0.00,VWS V14.01,2013-09-09 10:51:00,
2013-09-09 06:56:00,72.9,71.7,29.95,NW,325,0.0,0.0,96,0.00,,---,0.00,VWS V14.01,2013-09-09 10:56:00,
2013-09-09 07:01:00,72.8,71.6,29.95,NW,325,0.0,0.0,96,0.00,,---,0.00,VWS V14.01,2013-09-09 11:01:00,
2013-09-09 07:06:00,72.8,71.6,29.95,NW,325,0.0,0.0,96,0.00,,---,0.00,VWS V14.01,2013-09-09 11:06:00,
2013-09-09 07:11:00,72.8,71.6,29.95,NW,324,0.0,0.0,96,0.00,,---,0.00,VWS V14.01,2013-09-09 11:11:00,
2013-09-09 07:16:00,72.9,71.7,29.96,NW,323,0.0,0.0,96,0.00,,---,0.00,VWS V14.01,2013-09-09 11:16:00,
2013-09-09 07:21:00,72.9,71.7,29.96,NW,323,0.0,0.0,96,0.00,,---,0.00,VWS V14.01,2013-09-09 11:21:00,
2013-09-09 07:26:00,73.1,72.2,29.96,NW,323,0.0,0.0,97,0.00,,---,0.00,VWS V14.01,2013-09-09 11:26:00,
2013-09-09 07:32:00,73.2,72.0,29.96,NW,323,0.0,0.0,96,0.00,,---,0.00,VWS V14.01,2013-09-09 11:32:00,
2013-09-09 07:37:00,73.6,72.7,29.96,NW,323,0.0,0.0,97,0.00,,---,0.00,VWS V14.01,2013-09-09 11:37:00,
2013-09-09 07:42:00,73.8,72.9,29.96,NW,323,0.0,0.0,97,0.00,,---,0.00,VWS V14.01,2013-09-09 11:42:00,
2013-09-09 07:47:00,74.2,73.3,29.96,NW,323,0.0,0.0,97,0.00,,---,0.00,VWS V14.01,2013-09-09 11:47:00,
2013-09-09 07:52:00,74.6,73.7,29.96,NW,323,0.0,0.0,97,0.00,,---,0.00,VWS V14.01,2013-09-09 11:52:00,
2013-09-09 07:57:00,75.2,74.3,29.96,NW,323,0.0,0.0,97,0.00,,---,0.00,VWS V14.01,2013-09-09 11:57:00,
2013-09-09 08:02:00,75.8,74.6,29.96,NW,322,0.0,0.0,96,0.00,,---,0.00,VWS V14.01,2013-09-09 12:02:00,
2013-09-09 08:07:00,76.8,75.9,29.97,NW,321,0.0,0.0,97,0.00,,---,0.00,VWS V14.01,2013-09-09 12:07:00,
2013-09-09 08:12:00,77.6,76.4,29.97,NW,321,0.0,0.0,96,0.00,,---,0.00,VWS V14.01,2013-09-09 12:12:00,
2013-09-09 08:17:00,77.5,76.0,29.97,NE,48,0.0,3.0,95,0.00,,---,0.00,VWS V14.01,2013-09-09 12:17:00,
2013-09-09 08:22:00,78.0,76.1,29.97,NE,54,0.0,3.0,94,0.00,,---,0.00,VWS V14.01,2013-09-09 12:22:00,
2013-09-09 08:27:00,78.6,76.1,29.97,NNE,22,0.0,3.0,92,0.00,,---,0.00,VWS V14.01,2013-09-09 12:27:00,
2013-09-09 08:32:00,79.3,76.1,29.97,North,350,1.0,1.0,90,0.00,,---,0.00,VWS V14.01,2013-09-09 12:32:00,
2013-09-09 08:37:00,80.0,76.5,29.98,NE,53,5.0,5.0,89,0.00,,---,0.00,VWS V14.01,2013-09-09 12:37:00,
2013-09-09 08:42:00,80.6,76.0,29.98,NNE,33,3.0,8.0,86,0.00,,---,0.00,VWS V14.01,2013-09-09 12:42:00,
2013-09-09 08:47:00,81.1,76.5,29.98,North,9,2.0,8.0,86,0.00,,---,0.00,VWS V14.01,2013-09-09 12:47:00,
2013-09-09 08:53:00,81.4,76.5,29.98,ENE,62,0.0,8.0,85,0.00,,---,0.00,VWS V14.01,2013-09-09 12:53:00,
2013-09-09 08:58:00,81.7,76.4,29.98,NE,43,1.0,8.0,84,0.00,,---,0.00,VWS V14.01,2013-09-09 12:58:00,
2013-09-09 09:03:00,82.1,76.4,29.98,NE,41,1.0,7.0,83,0.00,,---,0.00,VWS V14.01,2013-09-09 13:03:00,
2013-09-09 09:08:00,82.1,74.9,29.98,NW,321,3.0,10.0,79,0.00,,---,0.00,VWS V14.01,2013-09-09 13:08:00,
2013-09-09 09:13:00,82.4,75.6,29.98,SE,146,3.0,10.0,80,0.00,,---,0.00,VWS V14.01,2013-09-09 13:13:00,
2013-09-09 09:18:00,82.5,74.9,29.98,ESE,122,4.0,11.0,78,0.00,,---,0.00,VWS V14.01,2013-09-09 13:18:00,
2013-09-09 09:23:00,82.7,75.5,29.98,NE,37,2.0,11.0,79,0.00,,---,0.00,VWS V14.01,2013-09-09 13:23:00,
2013-09-09 09:28:00,82.7,75.2,29.99,North,355,3.0,11.0,78,0.00,,---,0.00,VWS V14.01,2013-09-09 13:28:00,
2013-09-09 09:33:00,83.0,75.4,29.99,NNE,29,1.0,9.0,78,0.00,,---,0.00,VWS V14.01,2013-09-09 13:33:00,
2013-09-09 09:38:00,83.4,75.4,29.99,ENE,65,3.0,14.0,77,0.00,,---,0.00,VWS V14.01,2013-09-09 13:38:00,
2013-09-09 09:43:00,84.1,75.7,29.99,ENE,57,6.0,14.0,76,0.00,,---,0.00,VWS V14.01,2013-09-09 13:43:00,
2013-09-09 09:48:00,84.2,75.4,29.99,NE,43,5.0,14.0,75,0.00,,---,0.00,VWS V14.01,2013-09-09 13:48:00,
2013-09-09 09:53:00,84.1,75.3,29.99,ENE,60,3.0,14.0,75,0.00,,---,0.00,VWS V14.01,2013-09-09 13:53:00,
2013-09-09 09:58:00,84.1,75.7,29.99,East,96,4.0,14.0,76,0.00,,---,0.00,VWS V14.01,2013-09-09 13:58:00,
2013-09-09 10:03:00,84.1,75.3,29.99,NE,54,2.0,10.0,75,0.00,,---,0.00,VWS V14.01,2013-09-09 14:03:00,
2013-09-09 10:09:00,84.5,75.3,29.99,North,11,3.0,11.0,74,0.00,,---,0.00,VWS V14.01,2013-09-09 14:09:00,
2013-09-09 10:14:00,84.6,75.0,30.00,NNE,13,2.0,11.0,73,0.00,,---,0.00,VWS V14.01,2013-09-09 14:14:00,
2013-09-09 10:19:00,84.5,74.9,30.00,NE,54,6.0,11.0,73,0.00,,---,0.00,VWS V14.01,2013-09-09 14:19:00,
2013-09-09 10:24:00,84.3,74.3,30.00,NNE,13,5.0,11.0,72,0.00,,---,0.00,VWS V14.01,2013-09-09 14:24:00,
2013-09-09 10:29:00,84.5,74.5,30.00,NE,44,4.0,11.0,72,0.00,,---,0.00,VWS V14.01,2013-09-09 14:29:00,
2013-09-09 10:34:00,84.9,75.3,30.01,NE,47,8.0,8.0,73,0.00,,---,0.00,VWS V14.01,2013-09-09 14:34:00,
2013-09-09 10:39:00,84.9,74.4,30.01,NE,49,7.0,13.0,71,0.00,,---,0.00,VWS V14.01,2013-09-09 14:39:00,
2013-09-09 10:44:00,85.2,74.3,30.01,ESE,105,4.0,13.0,70,0.00,,---,0.00,VWS V14.01,2013-09-09 14:44:00,
2013-09-09 10:49:00,84.7,73.4,30.01,NE,34,9.0,13.0,69,0.00,,---,0.00,VWS V14.01,2013-09-09 14:49:00,
2013-09-09 10:54:00,84.7,74.3,30.01,ENE,63,9.0,13.0,71,0.00,,---,0.00,VWS V14.01,2013-09-09 14:54:00,
2013-09-09 10:59:00,84.8,73.9,30.01,NNE,27,11.0,13.0,70,0.00,,---,0.00,VWS V14.01,2013-09-09 14:59:00,
2013-09-09 11:04:00,84.7,73.0,30.01,NE,53,10.0,10.0,68,0.00,,---,0.00,VWS V14.01,2013-09-09 15:04:00,
2013-09-09 11:09:00,85.0,74.6,30.01,SE,131,2.0,12.0,71,0.00,,---,0.00,VWS V14.01,2013-09-09 15:09:00,
2013-09-09 11:14:00,85.4,75.3,30.01,ENE,76,2.0,12.0,72,0.00,,---,0.00,VWS V14.01,2013-09-09 15:14:00,
2013-09-09 11:20:00,85.6,74.7,30.01,ENE,60,4.0,12.0,70,0.00,,---,0.00,VWS V14.01,2013-09-09 15:20:00,
2013-09-09 11:25:00,85.8,74.5,30.01,ENE,73,6.0,12.0,69,0.00,,---,0.00,VWS V14.01,2013-09-09 15:25:00,
2013-09-09 11:30:00,85.5,74.2,30.02,NE,55,6.0,12.0,69,0.00,,---,0.00,VWS V14.01,2013-09-09 15:30:00,
2013-09-09 11:35:00,85.5,74.6,30.02,SE,134,1.0,7.0,70,0.00,,---,0.00,VWS V14.01,2013-09-09 15:35:00,
2013-09-09 11:40:00,86.0,74.7,30.02,ESE,121,2.0,11.0,69,0.00,,---,0.00,VWS V14.01,2013-09-09 15:40:00,
2013-09-09 11:45:00,86.1,74.3,30.01,ENE,65,4.0,11.0,68,0.00,,---,0.00,VWS V14.01,2013-09-09 15:45:00,
2013-09-09 11:50:00,85.8,74.5,30.01,ENE,69,4.0,11.0,69,0.00,,---,0.00,VWS V14.01,2013-09-09 15:50:00,
2013-09-09 11:55:00,85.7,73.9,30.01,North,359,3.0,11.0,68,0.00,,---,0.00,VWS V14.01,2013-09-09 15:55:00,
2013-09-09 12:00:00,85.8,74.0,30.01,North,352,3.0,6.0,68,0.00,,---,0.00,VWS V14.01,2013-09-09 16:00:00,
2013-09-09 12:05:00,85.9,74.1,30.01,North,8,4.0,12.0,68,0.00,,---,0.00,VWS V14.01,2013-09-09 16:05:00,
2013-09-09 12:10:00,86.0,73.8,30.01,NNE,16,2.0,14.0,67,0.00,,---,0.00,VWS V14.01,2013-09-09 16:10:00,
2013-09-09 12:15:00,85.8,72.7,30.01,ENE,65,7.0,14.0,65,0.00,,---,0.00,VWS V14.01,2013-09-09 16:15:00,
2013-09-09 12:20:00,86.2,74.4,30.01,NNE,27,4.0,14.0,68,0.00,,---,0.00,VWS V14.01,2013-09-09 16:20:00,
2013-09-09 12:25:00,86.5,74.7,30.01,ESE,118,2.0,14.0,68,0.00,,---,0.00,VWS V14.01,2013-09-09 16:25:00,
2013-09-09 12:31:00,86.4,73.7,30.01,ENE,65,5.0,6.0,66,0.00,,---,0.00,VWS V14.01,2013-09-09 16:31:00,
2013-09-09 12:36:00,87.1,73.4,30.01,ENE,64,4.0,12.0,64,0.00,,---,0.00,VWS V14.01,2013-09-09 16:36:00,
2013-09-09 12:41:00,87.4,73.3,30.01,ENE,57,6.0,12.0,63,0.00,,---,0.00,VWS V14.01,2013-09-09 16:41:00,
2013-09-09 12:46:00,87.0,73.8,30.00,NE,56,7.0,12.0,65,0.00,,---,0.00,VWS V14.01,2013-09-09 16:46:00,
2013-09-09 12:51:00,86.4,73.7,30.00,SE,136,2.0,13.0,66,0.00,,---,0.00,VWS V14.01,2013-09-09 16:51:00,
2013-09-09 12:56:00,86.6,73.4,30.00,North,356,4.0,13.0,65,0.00,,---,0.00,VWS V14.01,2013-09-09 16:56:00,
2013-09-09 13:01:00,86.3,74.1,30.00,ESE,105,1.0,4.0,67,0.00,,---,0.00,VWS V14.01,2013-09-09 17:01:00,
2013-09-09 13:06:00,86.6,74.8,30.00,East,91,2.0,7.0,68,0.00,,---,0.00,VWS V14.01,2013-09-09 17:06:00,
2013-09-09 13:11:00,86.6,73.4,30.00,NE,41,8.0,15.0,65,0.00,,---,0.00,VWS V14.01,2013-09-09 17:11:00,
2013-09-09 13:16:00,86.7,74.0,30.00,NNE,19,1.0,15.0,66,0.00,,---,0.00,VWS V14.01,2013-09-09 17:16:00,
2013-09-09 13:21:00,86.6,74.8,30.00,ENE,62,6.0,15.0,68,0.00,,---,0.00,VWS V14.01,2013-09-09 17:21:00,
2013-09-09 13:26:00,85.6,73.8,30.00,East,81,10.0,15.0,68,0.00,,---,0.00,VWS V14.01,2013-09-09 17:26:00,
2013-09-09 13:31:00,85.9,73.7,30.00,NNE,23,2.0,6.0,67,0.00,,---,0.00,VWS V14.01,2013-09-09 17:31:00,
2013-09-09 13:36:00,86.3,74.9,30.00,ENE,72,9.0,11.0,69,0.00,,---,0.00,VWS V14.01,2013-09-09 17:36:00,
2013-09-09 13:42:00,86.8,75.0,29.99,North,4,10.0,11.0,68,0.00,,---,0.00,VWS V14.01,2013-09-09 17:42:00,
2013-09-09 13:47:00,87.0,73.8,29.99,ENE,69,6.0,12.0,65,0.00,,---,0.00,VWS V14.01,2013-09-09 17:47:00,
2013-09-09 13:52:00,87.0,74.3,29.99,NE,51,5.0,14.0,66,0.00,,---,0.00,VWS V14.01,2013-09-09 17:52:00,
2013-09-09 13:57:00,87.6,74.8,29.99,NE,56,4.0,14.0,66,0.00,,---,0.00,VWS V14.01,2013-09-09 17:57:00,
2013-09-09 14:02:00,87.5,74.3,29.99,ENE,64,7.0,13.0,65,0.00,,---,0.00,VWS V14.01,2013-09-09 18:02:00,
2013-09-09 14:07:00,87.1,73.4,29.99,East,82,3.0,14.0,64,0.00,,---,0.00,VWS V14.01,2013-09-09 18:07:00,
2013-09-09 14:12:00,87.4,75.1,29.99,SE,139,2.0,14.0,67,0.00,,---,0.00,VWS V14.01,2013-09-09 18:12:00,
2013-09-09 14:17:00,87.0,74.3,29.99,East,101,2.0,14.0,66,0.00,,---,0.00,VWS V14.01,2013-09-09 18:17:00,
2013-09-09 14:22:00,87.2,74.0,29.99,NE,41,12.0,14.0,65,0.00,,---,0.00,VWS V14.01,2013-09-09 18:22:00,
2013-09-09 14:27:00,87.0,73.4,29.99,ENE,72,4.0,14.0,64,0.00,,---,0.00,VWS V14.01,2013-09-09 18:27:00,
2013-09-09 14:32:00,87.1,74.4,29.99,NNE,33,5.0,12.0,66,0.00,,---,0.00,VWS V14.01,2013-09-09 18:32:00,
2013-09-09 14:37:00,87.0,74.7,29.98,North,5,6.0,12.0,67,0.00,,---,0.00,VWS V14.01,2013-09-09 18:37:00,
2013-09-09 14:42:00,86.8,74.5,29.98,NE,46,5.0,12.0,67,0.00,,---,0.00,VWS V14.01,2013-09-09 18:42:00,
2013-09-09 14:47:00,86.6,73.9,29.98,NE,55,8.0,14.0,66,0.00,,---,0.00,VWS V14.01,2013-09-09 18:47:00,
2013-09-09 14:53:00,86.2,74.4,29.98,NNE,30,4.0,14.0,68,0.00,,---,0.00,VWS V14.01,2013-09-09 18:53:00,
2013-09-09 14:58:00,86.2,73.5,29.98,NE,39,7.0,14.0,66,0.00,,---,0.00,VWS V14.01,2013-09-09 18:58:00,
2013-09-09 15:03:00,86.4,74.6,29.98,NE,51,6.0,10.0,68,0.00,,---,0.00,VWS V14.01,2013-09-09 19:03:00,
2013-09-09 15:08:00,86.1,74.3,29.98,ENE,70,7.0,13.0,68,0.00,,---,0.00,VWS V14.01,2013-09-09 19:08:00,
2013-09-09 15:13:00,86.0,74.7,29.98,ENE,68,7.0,13.0,69,0.00,,---,0.00,VWS V14.01,2013-09-09 19:13:00,
2013-09-09 15:18:00,86.4,75.0,29.98,North,357,5.0,13.0,69,0.00,,---,0.00,VWS V14.01,2013-09-09 19:18:00,
2013-09-09 15:23:00,86.6,74.8,29.98,ESE,119,2.0,13.0,68,0.00,,---,0.00,VWS V14.01,2013-09-09 19:23:00,
2013-09-09 15:28:00,86.3,74.5,29.98,ENE,65,8.0,13.0,68,0.00,,---,0.00,VWS V14.01,2013-09-09 19:28:00,
2013-09-09 15:33:00,86.0,75.5,29.98,ENE,58,5.0,11.0,71,0.00,,---,0.00,VWS V14.01,2013-09-09 19:33:00,
2013-09-09 15:38:00,86.0,75.5,29.98,ENE,63,3.0,11.0,71,0.00,,---,0.00,VWS V14.01,2013-09-09 19:38:00,
2013-09-09 15:43:00,86.3,76.2,29.98,ENE,75,4.0,12.0,72,0.00,,---,0.00,VWS V14.01,2013-09-09 19:43:00,
2013-09-09 15:48:00,87.0,74.7,29.98,East,84,2.0,12.0,67,0.00,,---,0.00,VWS V14.01,2013-09-09 19:48:00,
2013-09-09 15:53:00,86.7,74.9,29.98,NE,43,12.0,13.0,68,0.00,,---,0.00,VWS V14.01,2013-09-09 19:53:00,
2013-09-09 15:58:00,86.1,74.3,29.98,NE,46,5.0,13.0,68,0.00,,---,0.00,VWS V14.01,2013-09-09 19:58:00,
2013-09-09 16:04:00,86.2,74.0,29.98,East,95,4.0,14.0,67,0.00,,---,0.00,VWS V14.01,2013-09-09 20:04:00,
2013-09-09 16:09:00,86.5,73.8,29.98,ENE,74,9.0,14.0,66,0.00,,---,0.00,VWS V14.01,2013-09-09 20:09:00,
2013-09-09 16:14:00,86.2,74.4,29.98,ENE,72,8.0,14.0,68,0.00,,---,0.00,VWS V14.01,2013-09-09 20:14:00,
2013-09-09 16:19:00,86.7,74.0,29.98,ENE,76,11.0,14.0,66,0.00,,---,0.00,VWS V14.01,2013-09-09 20:19:00,
2013-09-09 16:24:00,86.7,74.4,29.97,NE,47,2.0,14.0,67,0.00,,---,0.00,VWS V14.01,2013-09-09 20:24:00,
2013-09-09 16:29:00,86.8,74.1,29.97,NNE,25,6.0,14.0,66,0.00,,---,0.00,VWS V14.01,2013-09-09 20:29:00,
2013-09-09 16:34:00,87.0,74.3,29.97,ENE,57,8.0,9.0,66,0.00,,---,0.00,VWS V14.01,2013-09-09 20:34:00,
2013-09-09 16:39:00,86.3,74.1,29.97,ENE,58,12.0,15.0,67,0.00,,---,0.00,VWS V14.01,2013-09-09 20:39:00,
2013-09-09 16:44:00,86.0,75.5,29.97,NE,55,6.0,15.0,71,0.00,,---,0.00,VWS V14.01,2013-09-09 20:44:00,
2013-09-09 16:49:00,85.8,74.9,29.97,ESE,110,5.0,15.0,70,0.00,,---,0.00,VWS V14.01,2013-09-09 20:49:00,
2013-09-09 16:54:00,85.8,75.3,29.97,East,87,3.0,15.0,71,0.00,,---,0.00,VWS V14.01,2013-09-09 20:54:00,
2013-09-09 16:59:00,85.9,75.4,29.97,NE,48,13.0,15.0,71,0.00,,---,0.00,VWS V14.01,2013-09-09 20:59:00,
2013-09-09 17:05:00,85.8,75.7,29.97,ENE,75,7.0,10.0,72,0.00,,---,0.00,VWS V14.01,2013-09-09 21:05:00,
2013-09-09 17:10:00,85.2,75.6,29.97,NE,56,6.0,12.0,73,0.00,,---,0.00,VWS V14.01,2013-09-09 21:10:00,
2013-09-09 17:15:00,85.4,75.8,29.97,ENE,60,6.0,12.0,73,0.00,,---,0.00,VWS V14.01,2013-09-09 21:15:00,
2013-09-09 17:20:00,85.5,75.4,29.97,ENE,57,6.0,14.0,72,0.00,,---,0.00,VWS V14.01,2013-09-09 21:20:00,
2013-09-09 17:25:00,85.4,74.9,29.97,ENE,58,5.0,14.0,71,0.00,,---,0.00,VWS V14.01,2013-09-09 21:25:00,
2013-09-09 17:30:00,85.4,74.9,29.97,ENE,61,13.0,13.0,71,0.00,,---,0.00,VWS V14.01,2013-09-09 21:30:00,
2013-09-09 17:35:00,85.2,75.2,29.97,NNE,26,5.0,13.0,72,0.00,,---,0.00,VWS V14.01,2013-09-09 21:35:00,
2013-09-09 17:40:00,85.0,75.0,29.97,ENE,78,7.0,13.0,72,0.00,,---,0.00,VWS V14.01,2013-09-09 21:40:00,
2013-09-09 17:45:00,84.8,75.6,29.97,NE,43,8.0,14.0,74,0.00,,---,0.00,VWS V14.01,2013-09-09 21:45:00,
2013-09-09 17:50:00,85.3,75.7,29.97,SE,132,1.0,14.0,73,0.00,,---,0.00,VWS V14.01,2013-09-09 21:50:00,
2013-09-09 17:55:00,85.1,75.5,29.97,ESE,108,2.0,14.0,73,0.00,,---,0.00,VWS V14.01,2013-09-09 21:55:00,
2013-09-09 18:01:00,84.8,75.2,29.98,NE,55,7.0,12.0,73,0.00,,---,0.00,VWS V14.01,2013-09-09 22:01:00,
2013-09-09 18:06:00,84.5,74.9,29.97,NE,37,4.0,12.0,73,0.00,,---,0.00,VWS V14.01,2013-09-09 22:06:00,
2013-09-09 18:11:00,84.6,75.4,29.97,ESE,103,1.0,12.0,74,0.00,,---,0.00,VWS V14.01,2013-09-09 22:11:00,
2013-09-09 18:16:00,84.9,75.3,29.97,ENE,70,4.0,12.0,73,0.00,,---,0.00,VWS V14.01,2013-09-09 22:16:00,
2013-09-09 18:21:00,84.8,75.2,29.97,ENE,65,3.0,13.0,73,0.00,,---,0.00,VWS V14.01,2013-09-09 22:21:00,
2013-09-09 18:26:00,84.9,75.3,29.97,North,358,4.0,13.0,73,0.00,,---,0.00,VWS V14.01,2013-09-09 22:26:00,
2013-09-09 18:31:00,84.6,75.4,29.97,NNE,16,5.0,8.0,74,0.00,,---,0.00,VWS V14.01,2013-09-09 22:31:00,
2013-09-09 18:36:00,84.4,74.8,29.97,ENE,59,2.0,9.0,73,0.00,,---,0.00,VWS V14.01,2013-09-09 22:36:00,
2013-09-09 18:41:00,84.1,74.5,29.97,ENE,62,4.0,10.0,73,0.00,,---,0.00,VWS V14.01,2013-09-09 22:41:00,
2013-09-09 18:46:00,83.7,74.1,29.97,ENE,61,4.0,12.0,73,0.00,,---,0.00,VWS V14.01,2013-09-09 22:46:00,
2013-09-09 18:51:00,83.6,74.0,29.97,NE,46,3.0,12.0,73,0.00,,---,0.00,VWS V14.01,2013-09-09 22:51:00,
2013-09-09 18:57:00,83.4,74.2,29.98,ENE,64,2.0,12.0,74,0.00,,---,0.00,VWS V14.01,2013-09-09 22:57:00,
2013-09-09 19:02:00,83.2,74.1,29.98,NE,37,2.0,9.0,74,0.00,,---,0.00,VWS V14.01,2013-09-09 23:02:00,
2013-09-09 19:07:00,83.1,74.0,29.97,ENE,75,2.0,10.0,74,0.00,,---,0.00,VWS V14.01,2013-09-09 23:07:00,
2013-09-09 19:12:00,83.0,74.3,29.97,ENE,73,5.0,12.0,75,0.00,,---,0.00,VWS V14.01,2013-09-09 23:12:00,
2013-09-09 19:17:00,82.9,74.2,29.98,ENE,66,4.0,12.0,75,0.00,,---,0.00,VWS V14.01,2013-09-09 23:17:00,
2013-09-09 19:22:00,82.8,74.5,29.98,ENE,60,7.0,12.0,76,0.00,,---,0.00,VWS V14.01,2013-09-09 23:22:00,
2013-09-09 19:27:00,82.6,74.7,29.98,NNE,23,2.0,12.0,77,0.00,,---,0.00,VWS V14.01,2013-09-09 23:27:00,
2013-09-09 19:32:00,82.5,74.2,29.98,ENE,60,4.0,5.0,76,0.00,,---,0.00,VWS V14.01,2013-09-09 23:32:00,
2013-09-09 19:37:00,82.4,74.1,29.98,NE,49,3.0,11.0,76,0.00,,---,0.00,VWS V14.01,2013-09-09 23:37:00,
2013-09-09 19:42:00,82.3,74.0,29.98,NE,48,3.0,11.0,76,0.00,,---,0.00,VWS V14.01,2013-09-09 23:42:00,
2013-09-09 19:47:00,82.2,73.9,29.98,NNE,20,1.0,11.0,76,0.00,,---,0.00,VWS V14.01,2013-09-09 23:47:00,
2013-09-09 19:53:00,82.1,73.8,29.98,ENE,60,4.0,11.0,76,0.00,,---,0.00,VWS V14.01,2013-09-09 23:53:00,
2013-09-09 19:58:00,82.0,73.7,29.99,NE,44,4.0,11.0,76,0.00,,---,0.00,VWS V14.01,2013-09-09 23:58:00,
2013-09-09 20:03:00,82.0,74.1,29.99,NE,51,3.0,5.0,77,0.00,,---,0.00,VWS V14.01,2013-09-10 00:03:00,
2013-09-09 20:08:00,81.9,74.0,29.99,ENE,76,4.0,7.0,77,0.00,,---,0.00,VWS V14.01,2013-09-10 00:08:00,
2013-09-09 20:13:00,81.9,74.0,29.99,ENE,63,1.0,7.0,77,0.00,,---,0.00,VWS V14.01,2013-09-10 00:13:00,
2013-09-09 20:18:00,81.9,74.0,29.99,NNE,33,2.0,8.0,77,0.00,,---,0.00,VWS V14.01,2013-09-10 00:18:00,
2013-09-09 20:23:00,81.9,74.0,29.99,NE,46,6.0,8.0,77,0.00,,---,0.00,VWS V14.01,2013-09-10 00:23:00,
2013-09-09 20:28:00,81.9,74.0,29.99,East,85,3.0,8.0,77,0.00,,---,0.00,VWS V14.01,2013-09-10 00:28:00,
2013-09-09 20:33:00,81.9,74.0,29.99,NNE,33,1.0,7.0,77,0.00,,---,0.00,VWS V14.01,2013-09-10 00:33:00,
2013-09-09 20:38:00,81.8,73.9,29.99,NNE,20,4.0,7.0,77,0.00,,---,0.00,VWS V14.01,2013-09-10 00:38:00,
2013-09-09 20:44:00,81.6,73.7,29.99,NE,53,2.0,7.0,77,0.00,,---,0.00,VWS V14.01,2013-09-10 00:44:00,
2013-09-09 20:49:00,81.6,74.8,30.00,NNE,32,1.0,7.0,80,0.00,,---,0.00,VWS V14.01,2013-09-10 00:49:00,
2013-09-09 20:54:00,81.5,75.5,30.00,ENE,64,4.0,7.0,82,0.00,,---,0.00,VWS V14.01,2013-09-10 00:54:00,
2013-09-09 20:59:00,81.4,75.7,30.00,SE,129,3.0,7.0,83,0.00,,---,0.00,VWS V14.01,2013-09-10 00:59:00,
2013-09-09 21:04:00,81.1,75.8,30.00,ENE,70,5.0,10.0,84,0.00,,---,0.00,VWS V14.01,2013-09-10 01:04:00,
2013-09-09 21:09:00,80.8,75.5,30.01,NE,48,3.0,11.0,84,0.05,,---,0.05,VWS V14.01,2013-09-10 01:09:00,
2013-09-09 21:14:00,78.6,74.8,30.01,ENE,63,4.0,13.0,88,0.22,,---,0.22,VWS V14.01,2013-09-10 01:14:00,
2013-09-09 21:19:00,77.3,74.1,30.01,NE,53,0.0,13.0,90,0.23,,---,0.23,VWS V14.01,2013-09-10 01:19:00,
2013-09-09 21:24:00,76.6,73.8,30.01,ENE,72,2.0,13.0,91,0.23,,---,0.23,VWS V14.01,2013-09-10 01:24:00,
2013-09-09 21:29:00,76.3,73.5,30.01,NE,49,3.0,13.0,91,0.23,,---,0.23,VWS V14.01,2013-09-10 01:29:00,
2013-09-09 21:35:00,76.2,73.7,30.01,North,358,0.0,3.0,92,0.23,,---,0.23,VWS V14.01,2013-09-10 01:35:00,
2013-09-09 21:40:00,76.2,73.7,30.01,NE,54,1.0,3.0,92,0.23,,---,0.23,VWS V14.01,2013-09-10 01:40:00,
2013-09-09 21:45:00,76.1,73.6,30.01,NE,46,1.0,3.0,92,0.23,,---,0.23,VWS V14.01,2013-09-10 01:45:00,
2013-09-09 21:50:00,76.0,73.8,30.01,NE,44,0.0,3.0,93,0.23,,---,0.23,VWS V14.01,2013-09-10 01:50:00,
2013-09-09 21:55:00,76.0,73.8,30.01,NE,44,0.0,3.0,93,0.23,,---,0.23,VWS V14.01,2013-09-10 01:55:00,
2013-09-09 22:00:00,76.0,73.8,30.01,NE,44,0.0,0.0,93,0.23,,---,0.23,VWS V14.01,2013-09-10 02:00:00,
2013-09-09 22:05:00,76.2,74.3,30.01,NNE,20,0.0,1.0,94,0.23,,---,0.23,VWS V14.01,2013-09-10 02:05:00,
2013-09-09 22:10:00,76.1,73.9,30.02,NNE,20,0.0,1.0,93,0.23,,---,0.23,VWS V14.01,2013-09-10 02:10:00,
2013-09-09 22:15:00,76.1,73.9,30.01,NNE,20,0.0,1.0,93,0.23,,---,0.23,VWS V14.01,2013-09-10 02:15:00,
2013-09-09 22:20:00,76.2,74.3,30.01,NNE,15,0.0,1.0,94,0.23,,---,0.23,VWS V14.01,2013-09-10 02:20:00,
2013-09-09 22:25:00,76.3,74.4,30.02,NW,318,0.0,1.0,94,0.23,,---,0.23,VWS V14.01,2013-09-10 02:25:00,
2013-09-09 22:31:00,76.3,74.4,30.03,NE,51,6.0,11.0,94,0.00,,---,0.23,VWS V14.01,2013-09-10 02:31:00,
2013-09-09 22:36:00,76.6,74.4,30.03,East,99,3.0,11.0,93,0.02,,---,0.25,VWS V14.01,2013-09-10 02:36:00,
2013-09-09 22:41:00,76.4,74.2,30.03,East,95,2.0,11.0,93,0.18,,---,0.41,VWS V14.01,2013-09-10 02:41:00,
2013-09-09 22:46:00,76.0,73.8,30.03,SSW,193,1.0,11.0,93,0.35,,---,0.58,VWS V14.01,2013-09-10 02:46:00,
2013-09-09 22:51:00,75.8,73.9,30.02,SW,224,0.0,11.0,94,0.37,,---,0.60,VWS V14.01,2013-09-10 02:51:00,
2013-09-09 22:56:00,75.8,73.9,30.02,NNE,26,0.0,11.0,94,0.37,,---,0.60,VWS V14.01,2013-09-10 02:56:00,
2013-09-09 23:01:00,75.9,74.1,30.02,North,360,0.0,0.0,94,0.37,,---,0.60,VWS V14.01,2013-09-10 03:01:00,
2013-09-09 23:06:00,76.0,74.2,30.03,North,360,0.0,1.0,94,0.37,,---,0.60,VWS V14.01,2013-09-10 03:06:00,
2013-09-09 23:11:00,76.1,74.2,30.03,North,1,0.0,1.0,94,0.37,,---,0.60,VWS V14.01,2013-09-10 03:11:00,
2013-09-09 23:16:00,76.1,74.2,30.02,NNE,32,0.0,1.0,94,0.37,,---,0.60,VWS V14.01,2013-09-10 03:16:00,
2013-09-09 23:22:00,76.2,74.7,30.02,NNE,22,0.0,1.0,95,0.37,,---,0.60,VWS V14.01,2013-09-10 03:22:00,
2013-09-09 23:27:00,76.3,74.4,30.02,NNE,22,0.0,1.0,94,0.37,,---,0.60,VWS V14.01,2013-09-10 03:27:00,
2013-09-09 23:32:00,76.2,74.3,30.02,NNE,22,0.0,0.0,94,0.37,,---,0.60,VWS V14.01,2013-09-10 03:32:00,
2013-09-09 23:37:00,76.1,74.6,30.02,NNE,22,0.0,0.0,95,0.37,,---,0.60,VWS V14.01,2013-09-10 03:37:00,
2013-09-09 23:42:00,76.1,74.6,30.02,NNE,22,0.0,0.0,95,0.37,,---,0.60,VWS V14.01,2013-09-10 03:42:00,
2013-09-09 23:47:00,76.2,74.7,30.02,NNE,23,0.0,1.0,95,0.37,,---,0.60,VWS V14.01,2013-09-10 03:47:00,
2013-09-09 23:52:00,76.2,74.7,30.02,NNE,22,0.0,1.0,95,0.37,,---,0.60,VWS V14.01,2013-09-10 03:52:00,
2013-09-09 23:57:00,76.1,74.6,30.02,NNE,22,0.0,1.0,95,0.37,,---,0.60,VWS V14.01,2013-09-10 03:57:00,